Weather in Bethlehem

Palestinian Territory     31°42′16″N   35°12′13″E
temp.,
°C
wind,
m/s
gust,
m/s
humid.,
%
clouds,
%
prec.,
mm/h
press.,
hPa
HPBL,
m
10 august, wed
wed1000:00+23wnw35650 0.0 1009278
03:00+22wnw23680 0.0 1009125
06:00+21wnw22807 0.0 100980
09:00+24wnw23653 0.0 1009683
12:00+28wnw34440 0.0 10081163
15:00+31wnw76340 0.0 10071355
18:00+27wnw1010490 0.0 1006722
21:00+23wnw710752 0.0 1008460
11 august, thu
thu1100:00+22wnw47826 0.0 1007377
03:00+22wnw23855 0.0 1007200
06:00+21wnw23866 0.0 100894
09:00+24wnw12610 0.0 1009580
12:00+30nw44350 0.0 10081285
15:00+32nw55320 0.0 10071464
18:00+29nw98400 0.0 1007712
21:00+24wnw57600 0.0 1008290
12 august, fri
fri1200:00+23wnw23610 0.0 100896
03:00+23wnw22550 0.0 100815
06:00+22wnw22510 0.0 100811
09:00+27nw01320 0.0 1009448
12:00+31nnw33240 0.0 10081159
15:00+33nw55260 0.0 10071346
18:00+29nw1010350 0.0 1007526
21:00+24wnw57520 0.0 1009283
13 august, sat
sat1300:00+23wnw33540 0.0 100988
03:00+22w33510 0.0 100848
06:00+21w32580 0.0 100928
09:00+24wnw23490 0.0 1009507
12:00+29wnw44300 0.0 10081058
15:00+31wnw66280 0.0 10071117
18:00+27wnw1010450 0.0 1007522
21:00+23wnw68730 0.0 1008346
14 august, sun
sun1400:00+22wnw46822 0.0 1008318
03:00+21wnw348710 0.0 1008181
06:00+20w22904 0.0 100836
09:00+24wnw34630 0.0 1008610
12:00+30nw34380 0.0 10081106
15:00+32wnw55340 0.0 10061282
18:00+28wnw88480 0.0 1006566
21:00+24wnw46710 0.0 1008295